CUBESX-HSE 3 (RS42S) (57178 NORAD) Tracking and Keplerian Element Data

This shows tracking and keplerian element data for the satellite.

Feedback or suggestion? Click here.




ElementValue
Catalog57178
NameCUBESX-HSE 3 (RS42S)
Epoch Orbit7127
Epoch Day286.87757696
Epoch Year2024
RAAN338.6284
Inclination97.6019
Eccentricity0.0017537
Argument of Perigee75.2319
Mean Anonmoly285.0853
Mean Motion15.12592313
Decay Rate0.00019793
L11 57178U 23091N 24286.87757696 .00019793 00000+0 11314-2 0 9990
L22 57178 97.6019 338.6284 0017537 75.2319 285.0853 15.12592313 71276



Live tracking and technical data element details for CUBESX-HSE 3 (RS42S) (NORAD 57178). CUBESX-HSE 3 (RS42S) can be tracked NOW for your location showing map with azimuth and elevation plus other details from your city location.







IsCatalogInMostPopularTable: catalog: 57178, numindb: 33
Update: records affected: 1



GetName: 57178 CUBESX-HSE 3 (RS42S)

Hit Count: updated at: Thu, 23 Jan 2025 17:19:48 GMT